Location: Meanaryar
(48.4161°N, 4.7315°W)
Time: 01:11:07
(UTC+00:00)

Cosmos 1634 Rocket - Pass Details

Date: 18 September 2020
Orbit: 961 x 991 km, 82.9° (Epoch: 31 October)

Event Time Altitude Azimuth Distance (km) Brightness Sun altitude
Exits shadow 21:18:59 40° 204° (SSW) 1,392 4.6 -27.6°
Maximum altitude 21:21:22 75° 280° (W) 1,000 4.0 -27.9°
Drops below altitude 10° 21:27:36 10° 6° (N) 2,717 6.7 -28.7°
Sets 21:30:08 0° 9° (N) 3,672 7.4 -29.0°
